Location: Audinghen
(50.8518°N, 1.6129°E)
Time: 21:18:39
(UTC+00:00)

CZ-2D R/B - Pass Details

Date: 07 August 2020
Orbit: 792 x 845 km, 98.7° (Epoch: 21 September)

Event Time Altitude Azimuth Distance (km) Brightness Sun altitude
Rises 02:08:28 0° 12° (NNE) 3,408 6.7 -17.1°
Reaches altitude 10° 02:10:51 10° 10° (N) 2,473 5.7 -16.9°
Maximum altitude 02:16:16 63° 291° (WNW) 945 2.4 -16.4°
Enters shadow 02:19:23 26° 218° (SW) 1,619 3.1 -16.2°
